Location: Home
(42.5358°N, 72.7383°W)
Time: 00:34:53
(UTC-04:00)

DELTA 1 DEB - Pass Details

Date: 30 June 2022
Orbit: 600 x 774 km, 98.5° (Epoch: 16 August)

Event Time Altitude Azimuth Distance (km) Brightness Sun altitude
Exits shadow 22:54:36 32° 177° (S) 1,291 ? -18.7°
Maximum altitude 22:56:59 76° 257° (WSW) 788 ? -18.9°
Drops below altitude 10° 23:02:00 10° 343° (NNW) 2,262 ? -19.4°
Sets 23:04:16 0° 345° (NNW) 3,166 ? -19.6°
